Location: Maiden
(35.5760°N, 81.2120°W)
Time: 01:13:12
(UTC-04:00)

Vanguard 2 - Pass Details

Date: 09 August 2020
Orbit: 553 x 2937 km, 32.9° (Epoch: 20 September)

Event Time Altitude Azimuth Distance (km) Brightness Sun altitude
Rises 04:05:50 0° 279° (W) 4,914 - -26.9°
Reaches altitude 10° 04:10:15 10° 269° (W) 3,470 - -26.3°
Maximum altitude 04:16:41 25° 218° (SW) 1,911 - -25.4°
Drops below altitude 10° 04:21:12 10° 163° (SSE) 2,359 - -24.7°
Sets 04:23:37 0° 149° (SSE) 3,077 - -24.4°
